Location: Armagh
(54.3500°N, 6.6670°W)
Time: 02:13:15
(UTC+00:00)

ISS - Pass Details

Date: 13 December 2017
Orbit: 402 x 407 km, 51.6° (Epoch: 22 January)

Event Time Altitude Azimuth Distance (km) Brightness Sun altitude
Rises 16:47:05 0° 272° (W) 2,342 1.1 -6.1°
Reaches altitude 10° 16:49:13 10° 266° (W) 1,479 0.2 -6.4°
Maximum altitude 16:52:24 44° 193° (SSW) 580 -2.6 -6.8°
Drops below altitude 10° 16:55:34 10° 120° (ESE) 1,473 -1.3 -7.2°
Enters shadow 16:58:03 -1° 113° (ESE) 2,480 -0.2 -7.5°
